TELSTAR 18V

Last updated on Sun Apr 12 2026 00:02:55 GMT+0000 (Coordinated Universal Time)

1 43611U 18069A 26100.90631529 -.00000292 00000+0 00000+0 0 9995 2 43611 0.0165 256.0200 0002081 123.4195 283.9703 1.00271816 27962
UTC large
Height (km)
Speed (km/s)
/
Latitude / Longitude
Inclination (degrees)
Orbital Period (minutes)
Azimuth
Elevation
Range (km)
Doppler Factor

Next 0 passes for location: London (51.5072 / 0.1276)

Sorry there are no passes over London.